Barrow, AK

5:10 PM AKDT on June 19, 2018 (GMT -0800)
Wiley Post-Will Rogers Memorial

Weather History for PABR - November, 2017

Change the Weather History Date:

Monday, November 27, 2017

  Actual Average Record
Temperature  
Mean Temperature 4 °F -3 °F  
Max Temperature 13 °F 2 °F 31 °F (1950)
Min Temperature -5 °F -9 °F -35 °F (1927)
Degree Days  
Heating Degree Days 61 69  
Month to date heating degree days 1152 1721  
Since 1 July heating degree days 4652 5744  
Cooling Degree Days 0 0  
Month to date cooling degree days 0 0  
Year to date cooling degree days 0 0  
Moisture  
Dew Point 2 °F    
Average Humidity 85    
Maximum Humidity 92    
Minimum Humidity 79    
Precipitation  
Precipitation T in 0.00 in 0.10 in (1938)
Month to date precipitation 0.96 0.19  
Year to date precipitation 8.00 4.37  
Snow  
Snow T in 0.20 in 1.90 in (1992)
Month to date snowfall 6.9 5.3  
Since 1 July snowfall 14.8 19.9  
Since 1 September snowfall 14.0 18.8  
Snow Depth 5.00 in    
Sea Level Pressure  
Sea Level Pressure 29.55 in    
Wind  
Wind Speed 10 mph (ENE)    
Max Wind Speed 24 mph    
Max Gust Speed -    
Visibility 8 miles    
Events Snow    
T = Trace of Precipitation, MM = Missing Value Source: NWS Daily Summary

Daily Weather History Graph

Daily Weather History Graph

Search for Another Location

Airport or City:

Astronomy

Dec. 31, 1969 Rise Set
Actual Time Sun does not set Sun does not set
Civil Twilight 10:47 AM AKST 3:41 PM AKST
Nautical Twilight 9:02 AM AKST 5:26 PM AKST
Astronomical Twilight 7:41 AM AKST 6:47 PM AKST
Moon 3:46 PM AKST (11/27) 12:13 AM AKST (11/27)
Length of Visible Light 4h 54m
Length of Day
0h 00m
Waxing Gibbous, 62% of the Moon is Illuminated
Nov 27
Waxing Gibbous
Dec 3
Full
Dec 9
Last Quarter
Dec 17
New
Dec 26
First Quarter

Hourly Weather History & Observations

Time (AKST) Temp. Windchill Dew Point Humidity Pressure Visibility Wind Dir Wind Speed Gust Speed Precip Events Conditions
12:29 AM 10.9 °F -0.8 °F 8.1 °F 88% 29.62 in 10.0 mi ENE 8.1 mph - N/A   Overcast
12:53 AM 10.9 °F 0.2 °F 8.1 °F 88% 29.62 in 8.0 mi ENE 6.9 mph - N/A   Overcast
1:07 AM 10.9 °F -0.8 °F 9.0 °F 92% 29.62 in 5.0 mi ENE 8.1 mph - N/A   Overcast
1:53 AM 12.0 °F 0.5 °F 9.0 °F 88% 29.61 in 9.0 mi ENE 8.1 mph - N/A   Overcast
2:32 AM 10.9 °F -2.6 °F 8.1 °F 88% 29.59 in 2.0 mi ENE 10.4 mph - 0.00 in Snow Light Snow
2:43 AM 10.9 °F -1.8 °F 8.1 °F 88% 29.59 in 3.0 mi ENE 9.2 mph - 0.00 in Snow Light Snow
2:53 AM 12.9 °F 0.7 °F 10.0 °F 88% 29.60 in 6.0 mi NNE 9.2 mph - 0.00 in   Overcast
3:11 AM 12.0 °F -1.3 °F 9.0 °F 88% 29.59 in 7.0 mi NNE 10.4 mph - 0.00 in   Overcast
3:53 AM 10.9 °F -4.1 °F 8.1 °F 88% 29.58 in 10.0 mi NNE 12.7 mph - 0.00 in   Overcast
4:53 AM 10.0 °F -2.9 °F 6.1 °F 84% 29.57 in 10.0 mi NE 9.2 mph - 0.00 in   Overcast
5:53 AM 7.0 °F -8.3 °F 3.0 °F 84% 29.56 in 8.0 mi ENE 11.5 mph - N/A   Overcast
6:53 AM 5.0 °F -10.8 °F 1.9 °F 87% 29.55 in 10.0 mi ENE 11.5 mph - N/A   Overcast
7:53 AM 3.9 °F -13.0 °F -0.0 °F 84% 29.55 in 10.0 mi East 12.7 mph - N/A   Overcast
8:53 AM 3.9 °F -11.3 °F -0.0 °F 84% 29.55 in 9.0 mi ENE 10.4 mph - N/A   Overcast
9:53 AM 3.0 °F -13.3 °F -0.9 °F 84% 29.55 in 10.0 mi East 11.5 mph - N/A   Overcast
11:53 AM 1.0 °F -14.9 °F -4.0 °F 79% 29.54 in 10.0 mi East 10.4 mph - N/A   Overcast
12:53 PM -0.0 °F -13.0 °F -4.0 °F 83% 29.53 in 10.0 mi East 6.9 mph - N/A   Overcast
1:53 PM 1.0 °F -15.8 °F -2.9 °F 83% 29.53 in 7.0 mi East 11.5 mph - N/A   Overcast
2:53 PM -0.0 °F -17.1 °F -2.9 °F 88% 29.53 in 10.0 mi East 11.5 mph - N/A   Overcast
3:53 PM -0.0 °F -18.0 °F -4.0 °F 83% 29.52 in 10.0 mi East 12.7 mph - N/A   Overcast
4:53 PM -0.0 °F -16.3 °F -4.0 °F 83% 29.52 in 10.0 mi East 10.4 mph - N/A   Overcast
5:53 PM 1.0 °F -15.8 °F -4.0 °F 79% 29.52 in 10.0 mi ENE 11.5 mph - N/A   Overcast
6:53 PM -0.9 °F -14.1 °F -5.1 °F 83% 29.52 in 10.0 mi SE 6.9 mph - N/A   Overcast
7:53 PM -0.9 °F -12.7 °F -4.0 °F 87% 29.52 in 10.0 mi East 5.8 mph - N/A   Mostly Cloudy
8:00 PM -0.0 °F -11.6 °F -4.0 °F 83% 29.52 in 10.0 mi East 5.8 mph - N/A   Overcast
8:19 PM -0.0 °F -7.9 °F -2.9 °F 88% 29.51 in 10.0 mi ESE 3.5 mph - N/A   Overcast
8:53 PM 1.9 °F -5.6 °F -0.9 °F 88% 29.52 in 10.0 mi NNE 3.5 mph - N/A   Overcast
9:53 PM 7.0 °F -5.7 °F 3.0 °F 84% 29.52 in 3.0 mi NE 8.1 mph - N/A   Overcast
10:41 PM 10.0 °F -9.5 °F 6.1 °F 84% 29.51 in 6.0 mi ENE 21.9 mph - N/A   Overcast
10:53 PM 9.0 °F -11.0 °F 6.1 °F 88% 29.52 in 6.0 mi ENE 21.9 mph - N/A   Overcast
11:49 PM 8.6 °F -11.4 °F 5.0 °F 85% 29.51 in 1.8 mi ENE 21.9 mph - 0.00 in Snow Light Snow
11:53 PM 9.0 °F -11.8 °F 5.0 °F 84% 29.52 in 1.5 mi East 24.2 mph - 0.00 in Snow Light Snow